Regional Weather Roundup
Issued by NWS

Home | Current Version | Previous Version | Text Only | Print | Product List | Glossary On
Versions: 1 2 3 4 5 6 7 8 9 10 11 12 13 14 15 16 17 18 19 20 21 22 23 24 25 26 27 28 29 30 31 32 33 34 35 36 37 38 39 40 41 42 43 44 45 46 47 48 49 50
240
ASUS43 KBIS 201110
RWRND

NORTH DAKOTA REGIONAL WEATHER ROUNDUP
NATIONAL WEATHER SERVICE BISMARCK ND
500 AM CST TUE FEB 20 2018

NOTE: "FAIR" INDICATES FEW OR NO CLOUDS BELOW 12,000 FEET WITH NO
SIGNIFICANT WEATHER AND/OR OBSTRUCTIONS TO VISIBILITY.


NDZ001>003-009>011-017-201200-
NORTHWEST NORTH DAKOTA

CITY           SKY/WX    TMP DP  RH WIND       PRES   REMARKS
WILLISTON      CLOUDY     1  -5  75 W8        30.10S WCI -13
MINOT          LGT SNOW   5   0  79 W8        30.08F WCI  -8
MINOT AFB      CLOUDY     4  -1  81 NW8       30.07F BLWGSNOWWCI  -9
$$

NDZ018>021-031>035-040>046-201200-
SOUTHWEST NORTH DAKOTA

CITY           SKY/WX    TMP DP  RH WIND       PRES   REMARKS
BISMARCK       LGT SNOW   5   0  79 NW10      30.12R WCI -10
DICKINSON      MOCLDY    -4  -9  79 W8        30.01F WCI -19
GARRISON         N/A      2  -2  83 NW8       30.08R WCI -12
HETTINGER ARPT LGT SNOW   0  -5  79 NW10      30.04S WCI -16
$$

NDZ004>008-012>016-024-026-027-054-201200-
NORTHEAST NORTH DAKOTA

CITY           SKY/WX    TMP DP  RH WIND       PRES   REMARKS
GRAND FORKS    LGT SNOW   5   1  83 N16       30.09F FOG     WCI -14
GRND FRKS AFB  CLOUDY     4  -2  79 N13       30.09F BLWGSNOWWCI -13
DEVILS LAKE    LGT SNOW   2  -2  83 NW12      30.07F FOG     WCI -15
$$

NDZ022-023-025-028>030-036>039-047>053-201200-
SOUTHEAST NORTH DAKOTA

CITY           SKY/WX    TMP DP  RH WIND       PRES   REMARKS
FARGO          LGT SNOW   6   2  83 N21       30.00F FOG     WCI -14
JAMESTOWN      LGT SNOW   3  -1  83 N17       30.07R FOG     WCI -17
$$





USA.gov is the U.S. government's official web portal to all federal, state and local government web resources and services.